Hovedside
METAR-TAF:

METAR-TAF

Lufthavner :

Sanderson Field Airport

Shelton, Washington, USA

breddegrad: 47-14-17N, lengdegrad: 123-08-27W, høyde over havet: 82 m

Gjeldene værobservasjon

Denne rapporten ble laget for 39 minutter siden, klokken 02:53 UTC
Vind 4 kt fra Nord
Temperatur 16°C
Luftfuktighet 72%
Trykk 1020 hPa
Sikt: 16.1 km
Overskyet i en høyde av 5500 ft

METAR: KSHN 270253Z AUTO 36004KT 10SM OVC055 16/11 A3013 RMK AO2 SLP203 T01610111 58003

Tid: 20:32 (03:32 UTC)


TAF: fraværende

Værobservasjoner og værvarsel for over 4000 flyplasser (METAR- og TAF-rapporter).

Tilgjengelige stasjoner er representert av de røde og gule prikkene på kartet.

Hold musepekeren over prikken for å se navnet på stasjonen.

Klikk så for å se værobservasjoner og -varsler.

For å forandre kartet kan du klikke på den grønne knappen med svart kryss for å zoome inn, på den grønne knappen med strek for å zoome ut, eller på de grønne pilene for å se tilstøtende kart.


METAR-TAF: